TimeEST,TemperatureF,Dew PointF,Humidity,Sea Level PressureIn,VisibilityMPH,Wind Direction,Wind SpeedMPH,Gust SpeedMPH,PrecipitationIn,Events,Conditions,WindDirDegrees,DateUTC
12:35 AM,61.3,58.1,89,29.91,10.0,South,4.6,-,N/A,,Overcast,190,2013-01-13 05:35:00
12:55 AM,62.2,58.1,86,29.90,10.0,South,4.6,-,N/A,,Overcast,170,2013-01-13 05:55:00
1:35 AM,62.6,57.6,84,29.89,10.0,South,5.8,-,N/A,,Overcast,180,2013-01-13 06:35:00
1:55 AM,63.0,57.6,82,29.89,10.0,South,6.9,-,N/A,,Mostly Cloudy,190,2013-01-13 06:55:00
2:15 AM,63.0,57.4,82,29.88,10.0,South,5.8,-,N/A,,Scattered Clouds,180,2013-01-13 07:15:00
2:35 AM,62.8,57.4,82,29.88,10.0,South,5.8,-,N/A,,Clear,180,2013-01-13 07:35:00
2:55 AM,63.0,57.4,82,29.88,10.0,South,4.6,-,N/A,,Clear,190,2013-01-13 07:55:00
3:15 AM,62.8,57.2,82,29.87,10.0,South,5.8,-,N/A,,Clear,180,2013-01-13 08:15:00
3:35 AM,62.6,57.0,82,29.86,10.0,South,4.6,-,N/A,,Clear,190,2013-01-13 08:35:00
3:55 AM,61.7,56.5,83,29.86,10.0,South,4.6,-,N/A,,Clear,180,2013-01-13 08:55:00
4:15 AM,61.3,56.7,85,29.86,10.0,SSW,5.8,-,N/A,,Clear,200,2013-01-13 09:15:00
4:35 AM,60.8,56.7,86,29.87,10.0,SSW,4.6,-,N/A,,Clear,200,2013-01-13 09:35:00
4:55 AM,60.3,56.5,87,29.87,10.0,SSW,5.8,-,N/A,,Clear,200,2013-01-13 09:55:00
5:35 AM,60.3,56.5,87,29.87,10.0,South,8.1,-,N/A,,Scattered Clouds,170,2013-01-13 10:35:00
5:55 AM,60.4,56.7,87,29.86,10.0,South,6.9,-,N/A,,Scattered Clouds,170,2013-01-13 10:55:00
6:15 AM,61.7,56.8,84,29.87,10.0,South,10.4,17.3,N/A,,Scattered Clouds,180,2013-01-13 11:15:00
6:35 AM,62.1,56.5,82,29.87,10.0,South,10.4,16.1,N/A,,Scattered Clouds,190,2013-01-13 11:35:00
6:55 AM,62.6,56.5,80,29.89,10.0,SSW,8.1,-,N/A,,Mostly Cloudy,210,2013-01-13 11:55:00
7:35 AM,62.6,56.3,80,29.93,10.0,SSW,6.9,-,N/A,,Overcast,210,2013-01-13 12:35:00
7:55 AM,61.0,55.9,83,29.94,10.0,West,5.8,-,N/A,,Overcast,260,2013-01-13 12:55:00
8:15 AM,59.9,56.5,88,29.96,5.0,West,6.9,-,N/A,,Drizzle,280,2013-01-13 13:15:00
8:35 AM,59.2,56.1,90,29.97,7.0,WSW,9.2,-,N/A,,Drizzle,240,2013-01-13 13:35:00
8:55 AM,58.6,56.3,92,29.98,10.0,SW,8.1,-,N/A,Rain,Light Rain,230,2013-01-13 13:55:00
9:15 AM,58.8,56.3,91,29.98,10.0,SSW,3.5,-,N/A,,Overcast,210,2013-01-13 14:15:00
9:35 AM,59.0,56.3,91,29.98,10.0,SSW,4.6,-,N/A,,Overcast,200,2013-01-13 14:35:00
9:55 AM,59.0,56.5,91,29.98,10.0,Calm,Calm,-,N/A,,Overcast,0,2013-01-13 14:55:00
10:35 AM,59.0,56.3,91,29.99,10.0,SSW,6.9,-,N/A,,Overcast,200,2013-01-13 15:35:00
10:55 AM,59.9,57.2,91,29.98,10.0,SW,4.6,-,N/A,,Overcast,220,2013-01-13 15:55:00
11:15 AM,60.6,56.8,87,29.97,10.0,South,5.8,-,N/A,,Overcast,190,2013-01-13 16:15:00
11:35 AM,61.2,57.2,87,29.96,10.0,SSW,4.6,-,N/A,,Scattered Clouds,200,2013-01-13 16:35:00
11:55 AM,61.0,56.7,86,29.94,10.0,South,4.6,-,N/A,,Mostly Cloudy,190,2013-01-13 16:55:00
12:15 PM,61.3,56.7,85,29.93,10.0,South,5.8,-,N/A,,Scattered Clouds,180,2013-01-13 17:15:00
12:35 PM,61.9,56.7,83,29.91,10.0,South,10.4,-,N/A,,Mostly Cloudy,170,2013-01-13 17:35:00
12:55 PM,63.5,57.0,79,29.91,10.0,South,8.1,-,N/A,,Scattered Clouds,170,2013-01-13 17:55:00
1:15 PM,62.4,56.3,80,29.91,10.0,South,9.2,-,N/A,Rain,Light Rain,180,2013-01-13 18:15:00
1:35 PM,62.8,56.5,80,29.92,10.0,WSW,9.2,-,N/A,,Overcast,240,2013-01-13 18:35:00
1:55 PM,62.4,56.3,80,29.92,10.0,SSW,4.6,-,N/A,,Light Drizzle,210,2013-01-13 18:55:00
2:15 PM,61.9,56.3,82,29.92,10.0,South,6.9,-,N/A,Rain,Light Rain,190,2013-01-13 19:15:00
2:35 PM,61.0,56.5,85,29.91,10.0,South,4.6,-,N/A,Rain,Light Rain,190,2013-01-13 19:35:00
2:55 PM,60.4,56.5,87,29.91,10.0,South,3.5,-,N/A,Rain,Light Rain,180,2013-01-13 19:55:00
3:15 PM,60.1,56.7,88,29.90,10.0,South,5.8,-,N/A,Rain,Light Rain,170,2013-01-13 20:15:00
3:35 PM,59.9,56.5,88,29.90,10.0,South,9.2,-,N/A,,Mostly Cloudy,170,2013-01-13 20:35:00
3:55 PM,59.9,55.9,87,29.91,10.0,South,5.8,-,N/A,Rain,Light Rain,190,2013-01-13 20:55:00
4:15 PM,60.1,55.8,86,29.90,10.0,South,9.2,-,N/A,,Overcast,170,2013-01-13 21:15:00
4:35 PM,60.1,55.6,85,29.90,10.0,South,6.9,-,N/A,Rain,Light Rain,170,2013-01-13 21:35:00
4:55 PM,60.3,55.4,84,29.90,10.0,South,9.2,-,N/A,,Overcast,180,2013-01-13 21:55:00
5:15 PM,60.1,55.4,85,29.90,10.0,South,6.9,-,N/A,,Overcast,190,2013-01-13 22:15:00
5:35 PM,60.1,55.4,85,29.91,10.0,South,6.9,-,N/A,,Overcast,180,2013-01-13 22:35:00
5:55 PM,59.4,55.4,87,29.91,10.0,South,5.8,-,N/A,Rain,Light Rain,190,2013-01-13 22:55:00
6:15 PM,59.0,55.6,88,29.91,10.0,South,5.8,-,N/A,,Light Drizzle,190,2013-01-13 23:15:00
6:35 PM,58.6,55.6,90,29.92,10.0,SW,5.8,-,N/A,Rain,Light Rain,220,2013-01-13 23:35:00
6:55 PM,58.1,55.8,92,29.93,10.0,WSW,5.8,-,N/A,Rain,Rain,250,2013-01-13 23:55:00
7:15 PM,58.1,56.3,94,29.93,5.0,SW,3.5,-,N/A,Rain,Rain,220,2013-01-14 00:15:00
7:55 PM,57.7,56.3,95,29.89,10.0,SSE,6.9,-,N/A,Rain,Rain,150,2013-01-14 00:55:00
8:15 PM,57.9,56.3,94,29.89,10.0,South,9.2,-,N/A,Rain,Light Rain,170,2013-01-14 01:15:00
8:35 PM,58.1,56.5,94,29.90,10.0,SSW,4.6,-,N/A,Rain,Light Rain,210,2013-01-14 01:35:00
8:55 PM,57.7,56.3,95,29.89,10.0,South,4.6,-,N/A,Rain,Light Rain,180,2013-01-14 01:55:00
9:15 PM,57.6,56.1,95,29.87,10.0,SSE,6.9,-,N/A,Rain,Light Rain,160,2013-01-14 02:15:00
9:35 PM,57.6,56.3,96,29.89,10.0,South,6.9,-,N/A,Rain,Light Rain,190,2013-01-14 02:35:00
9:55 PM,57.4,56.3,96,29.89,10.0,South,8.1,-,N/A,Rain,Light Rain,180,2013-01-14 02:55:00
10:15 PM,57.2,56.3,97,29.89,10.0,South,8.1,-,N/A,Rain,Rain,170,2013-01-14 03:15:00
10:35 PM,57.2,56.1,96,29.90,10.0,SSW,6.9,-,N/A,Rain,Rain,200,2013-01-14 03:35:00
10:55 PM,57.2,55.9,96,29.92,7.0,WSW,4.6,-,N/A,Rain,Light Rain,240,2013-01-14 03:55:00
11:15 PM,51.8,50.2,94,29.97,2.0,WNW,13.8,32.2,N/A,Rain,Light Rain,300,2013-01-14 04:15:00
11:35 PM,48.2,46.0,92,30.01,3.0,WNW,18.4,26.5,N/A,,Overcast,290,2013-01-14 04:35:00
11:55 PM,44.6,42.8,93,30.02,2.5,West,12.7,17.3,N/A,,Overcast,280,2013-01-14 04:55:00